Satellite: MET-3/5
Catalog number: 21655
Epoch time:      08296.89756502
Element set:    0521
Inclination:      082.5595 deg
RA of node:       014.1495 deg
Eccentricity:    0.0014604
Arg of perigee:   057.6017 deg
Mean anomaly:     302.6516 deg
Mean motion:   13.17015012 rev/day
Decay rate:        5.1e-07 rev/day^2
Epoch rev:           82639
Checksum:              290

Satellite: MET-2/21
Catalog number: 22782
Epoch time:      08296.33788139
Element set:    0283
Inclination:      082.5519 deg
RA of node:       010.7008 deg
Eccentricity:    0.0021036
Arg of perigee:   295.3822 deg
Mean anomaly:     064.5149 deg
Mean motion:   13.83633140 rev/day
Decay rate:        6.0e-08 rev/day^2
Epoch rev:           76471
Checksum:              299

Satellite: OKEAN-4
Catalog number: 23317
Epoch time:      08297.69163946
Element set:     727
Inclination:      082.5400 deg
RA of node:       195.1618 deg
Eccentricity:    0.0023892
Arg of perigee:   065.4021 deg
Mean anomaly:     294.9706 deg
Mean motion:   14.82644220 rev/day
Decay rate:       1.02e-06 rev/day^2
Epoch rev:           75732
Checksum:              305

Satellite: NOAA-14
Catalog number: 23455
Epoch time:      08296.72770738
Element set:    0358
Inclination:      098.9345 deg
RA of node:       008.9670 deg
Eccentricity:    0.0010039
Arg of perigee:   140.4060 deg
Mean anomaly:     219.7841 deg
Mean motion:   14.13749672 rev/day
Decay rate:      -2.31e-06 rev/day^2
Epoch rev:           71237
Checksum:              315

Satellite: NOAA-15
Catalog number: 25338
Epoch time:      08296.61269444
Element set:    0670
Inclination:      098.5668 deg
RA of node:       285.3041 deg
Eccentricity:    0.0011281
Arg of perigee:   034.5207 deg
Mean anomaly:     325.6700 deg
Mean motion:   14.24728336 rev/day
Decay rate:      -1.11e-06 rev/day^2
Epoch rev:           54294
Checksum:              301

Satellite: RESURS
Catalog number: 25394
Epoch time:      08297.67842981
Element set:      52
Inclination:      098.3705 deg
RA of node:       335.6895 deg
Eccentricity:    0.0001382
Arg of perigee:   146.8876 deg
Mean anomaly:     213.2389 deg
Mean motion:   14.24173588 rev/day
Decay rate:       -2.0e-08 rev/day^2
Epoch rev:           53473
Checksum:              333

Satellite: FENGYUN1
Catalog number: 25730
Epoch time:      08296.92075760
Element set:    0598
Inclination:      098.7353 deg
RA of node:       268.4513 deg
Eccentricity:    0.0020231
Arg of perigee:   162.9564 deg
Mean anomaly:     197.2290 deg
Mean motion:   14.07818816 rev/day
Decay rate:       5.47e-06 rev/day^2
Epoch rev:           48693
Checksum:              335

Satellite: OKEAN-0
Catalog number: 25860
Epoch time:      08297.52558888
Element set:     505
Inclination:      097.7630 deg
RA of node:       282.4808 deg
Eccentricity:    0.0000694
Arg of perigee:   097.6912 deg
Mean anomaly:     262.4382 deg
Mean motion:   14.73540794 rev/day
Decay rate:        2.2e-07 rev/day^2
Epoch rev:           49829
Checksum:              341

Satellite: NOAA-16
Catalog number: 26536
Epoch time:      08296.64091952
Element set:    0144
Inclination:      099.1687 deg
RA of node:       288.6830 deg
Eccentricity:    0.0009854
Arg of perigee:   225.7159 deg
Mean anomaly:     134.3204 deg
Mean motion:   14.12498191 rev/day
Decay rate:      -2.88e-06 rev/day^2
Epoch rev:           41676
Checksum:              341

Satellite: NOAA-17
Catalog number: 27453
Epoch time:      08296.72362974
Element set:    0145
Inclination:      098.5195 deg
RA of node:       357.5637 deg
Eccentricity:    0.0012768
Arg of perigee:   097.1978 deg
Mean anomaly:     263.0665 deg
Mean motion:   14.24010918 rev/day
Decay rate:       -3.1e-07 rev/day^2
Epoch rev:           32895
Checksum:              343

Satellite: NOAA-18
Catalog number: 28654
Epoch time:      08296.74694766
Element set:    0632
Inclination:      098.8790 deg
RA of node:       236.1643 deg
Eccentricity:    0.0013880
Arg of perigee:   316.4758 deg
Mean anomaly:     043.5283 deg
Mean motion:   14.11203952 rev/day
Decay rate:       3.93e-06 rev/day^2
Epoch rev:           17646
Checksum:              341

/EX
SB KEPS @ AMSAT  $ORB08297.M
Orbital Elements  08297.MISC

HR AMSAT ORBITAL ELEMENTS FOR MANNED AND MISCELLANEOUS SATELLITES
FROM WA5QGD FORT WORTH,TX October 23, 2008
Send Subscribe/unsubscribe to KEPS at 
http://www.amsat.org/mailman/listinfo/keps
BID: ORB08297.M
TO ALL RADIO AMATEURS BT

Satellite: HUBBLE
Catalog number: 20580
Epoch time:      08296.92533654
Element set:    0248
Inclination:      028.4695 deg
RA of node:       210.0651 deg
Eccentricity:    0.0003591
Arg of perigee:   296.7058 deg
Mean anomaly:     063.3162 deg
Mean motion:   15.00420172 rev/day
Decay rate:       4.03e-06 rev/day^2
Epoch rev:           81418
Checksum:              276

Satellite: PO-34
Catalog number: 25520
Epoch time:      08296.67566415
Element set:    0117
Inclination:      028.4589 deg
RA of node:       045.2155 deg
Eccentricity:    0.0005780
Arg of perigee:   231.7835 deg
Mean anomaly:     128.2235 deg
Mean motion:   15.17245403 rev/day
Decay rate:       4.15e-06 rev/day^2
Epoch rev:           55254
Checksum:              298

